Location: Zürich
(47.3769°N, 8.5417°E)
Time: 06:40:27
(UTC+02:00)

ISS - Visible Passes

Search period start: 18 May 2021 00:00
Search period end: 28 May 2021 00:00
Orbit: 417 x 422 km, 51.6° (Epoch: 18 May)

Date Brightness Start Highest point End Pass type
(mag) Time Alt. Az. Time Alt. Az. Time Alt. Az.
18 May -2.6 01:18:57 10° WNW 01:22:12 43° N 01:22:52 38° NE visible
18 May -2.8 22:54:08 10° W 22:57:25 50° NNW 23:00:44 10° ENE visible
19 May -2.4 00:31:26 10° WNW 00:34:39 39° N 00:36:27 21° ENE visible
19 May -1.6 02:08:18 10° WNW 02:09:22 19° WNW 02:09:22 19° WNW visible
19 May -3.3 22:06:34 10° WSW 22:09:54 64° NNW 22:13:16 10° ENE visible
19 May -2.3 23:43:53 10° WNW 23:47:04 38° N 23:50:15 10° ENE visible
20 May -2.6 01:20:51 10° WNW 01:23:12 40° NW 01:23:12 40° NW visible
20 May -2.3 22:56:18 10° WNW 22:59:29 39° N 23:02:41 10° ENE visible
21 May -3.0 00:33:23 10° WNW 00:36:42 52° NNE 00:37:06 48° NE visible
21 May -2.5 22:08:41 10° W 22:11:55 42° N 22:15:09 10° ENE visible
21 May -2.6 23:45:53 10° WNW 23:49:09 43° N 23:51:03 21° ENE visible
22 May -1.7 01:22:44 10° WNW 01:23:59 21° WNW 01:23:59 21° WNW visible
22 May -2.4 22:58:22 10° WNW 23:01:34 39° N 23:04:46 10° ENE visible
23 May -3.3 00:35:14 10° WNW 00:37:58 55° WNW 00:37:58 55° WNW visible
23 May -2.3 22:10:48 10° WNW 22:13:59 38° N 22:17:09 10° ENE visible
23 May -3.5 23:47:46 10° WNW 23:51:07 67° NNE 23:51:59 45° E visible
24 May -0.9 01:24:51 10° W 01:24:55 10° W 01:24:55 10° W visible
24 May -3.1 23:00:17 10° WNW 23:03:36 52° NNE 23:06:00 17° E visible
25 May -2.1 00:37:11 10° WNW 00:38:57 25° W 00:38:57 25° W visible
25 May -2.7 22:12:46 10° WNW 22:16:02 44° N 22:19:16 10° E visible
25 May -3.8 23:49:38 10° WNW 23:52:58 62° SSW 23:53:00 61° SSW visible
26 May -3.8 23:02:07 10° WNW 23:05:29 89° SSW 23:07:06 29° ESE visible
27 May -1.1 00:39:35 10° W 00:40:02 12° W 00:40:02 12° W visible
27 May -3.5 22:14:38 10° WNW 22:17:59 67° NNE 22:21:12 11° ESE visible
27 May -2.3 23:51:42 10° W 23:54:09 26° SW 23:54:09 26° SW visible
